Theta_e
309 309 309 308 308 308 308 309 309 310 311 311 311 311 310 310 309 309 309 310 310 310 310 310 310 310 310 310 310 309 309 309 309 309 311 313 312 312 314 317 316 316 322 326 324 323 323 323 330 339 341 340 340 340 341 344 347 349 352 353 352 353 355 355 353 355 356 354 353 355 355 353 352 353 351 349 349 349 349 348 347 348 346 343 342 344 346 346
310 310 310 309 309 309 308 308 308 309 310 310 311 311 311 311 310 309 309 310 310 310 310 310 310 311 310 310 310 310 309 309 309 310 312 312 312 312 312 316 317 315 318 323 324 322 322 325 332 340 341 339 340 341 343 346 348 348 351 352 351 352 354 354 353 355 356 354 354 355 354 354 353 353 352 350 349 349 348 349 348 348 347 344 343 345 347 346
311 310 310 310 310 309 309 308 308 308 308 309 310 311 311 312 311 310 309 309 310 310 310 311 311 311 311 311 310 310 309 309 310 311 312 311 312 312 312 315 317 316 316 321 323 321 323 330 336 340 341 341 341 343 346 349 351 351 351 352 352 351 351 352 355 356 356 355 355 355 354 355 354 353 353 351 349 349 348 349 349 349 348 347 346 347 347 346
311 311 310 310 310 310 309 309 309 308 308 308 309 310 311 311 312 311 310 309 310 310 310 311 311 311 311 311 310 310 309 310 311 314 315 312 312 312 311 314 318 317 316 319 321 320 322 329 336 340 343 344 343 346 348 351 353 352 352 352 352 351 351 352 355 355 354 355 356 355 354 355 355 354 353 351 349 349 349 349 348 348 348 348 347 348 348 347
311 311 311 311 311 311 311 310 310 309 308 308 308 309 310 311 312 312 311 310 310 310 311 311 311 311 311 311 311 309 309 312 316 320 320 315 312 312 311 314 317 317 316 318 320 319 321 326 335 340 344 346 345 347 349 351 353 353 353 352 352 352 353 354 355 354 353 354 355 355 355 354 355 354 352 350 350 349 350 349 347 348 347 347 348 348 348 347
312 312 312 312 312 312 312 311 310 310 309 309 308 308 309 310 311 312 312 310 310 310 311 311 311 311 311 311 311 309 310 315 320 322 322 319 315 313 312 313 318 318 317 319 320 319 321 329 338 342 344 344 344 346 349 352 352 352 352 352 353 352 355 357 354 353 352 354 355 356 355 355 355 353 351 351 352 350 348 348 347 347 348 348 348 347 347 347
312 312 313 313 313 313 313 313 311 311 310 309 309 309 309 309 310 312 312 311 310 310 311 311 311 311 311 311 310 309 309 314 320 321 320 319 316 314 312 312 318 319 317 319 320 320 324 333 342 343 343 343 342 343 348 352 353 351 350 352 353 354 357 357 354 352 352 354 355 356 355 355 355 353 352 353 352 348 347 347 347 346 348 349 347 347 347 346
313 312 313 314 314 314 314 313 313 312 310 309 309 309 309 309 310 311 312 311 310 310 311 312 312 311 311 311 309 309 308 312 320 322 320 316 313 314 312 312 318 321 319 319 319 322 328 336 341 342 342 343 339 338 346 351 353 352 350 352 354 355 356 356 354 353 353 354 355 356 356 356 355 352 353 354 351 348 347 347 346 346 348 349 348 347 346 344
313 313 314 314 315 314 314 314 313 313 312 310 309 309 309 309 310 311 311 311 310 311 311 312 312 311 311 310 309 309 310 313 320 322 321 316 312 313 312 313 320 323 322 320 319 325 332 337 340 342 341 339 334 333 344 348 349 352 351 353 356 355 356 356 355 354 353 354 355 356 356 355 353 352 353 353 351 349 349 348 347 347 349 350 349 347 345 342
313 313 314 315 315 315 314 314 314 314 313 311 310 309 309 309 309 310 311 312 311 311 312 312 312 311 310 310 309 310 315 319 321 323 323 319 313 312 311 315 322 323 322 320 320 327 334 338 341 343 338 334 330 330 342 347 347 352 353 354 356 355 355 355 355 355 354 355 356 356 354 354 352 352 353 352 351 349 349 350 348 348 349 350 348 347 344 341
314 313 314 315 315 315 314 315 315 314 313 312 311 309 309 309 309 310 311 311 311 311 312 312 311 310 309 309 308 310 319 324 323 323 323 321 317 315 312 316 322 322 321 319 319 325 332 338 341 342 338 333 329 329 341 349 352 353 353 353 353 354 354 353 354 355 355 355 356 355 354 354 353 353 354 351 351 349 349 351 349 349 349 349 348 346 345 345
314 314 314 315 316 315 314 315 315 315 314 312 311 310 309 309 309 310 311 311 311 312 312 312 311 310 309 310 309 311 321 325 324 324 322 320 319 318 315 316 321 322 321 319 317 320 328 336 338 337 334 330 327 328 332 341 352 354 352 351 350 352 352 350 352 353 354 355 354 354 355 355 353 354 354 351 350 350 350 350 350 350 350 350 349 348 348 349
314 314 315 315 315 315 314 315 315 316 315 312 310 310 309 309 309 311 311 311 312 311 312 312 311 311 311 312 310 311 322 325 324 326 323 320 319 319 317 316 317 319 321 320 317 317 324 333 335 333 330 328 328 327 325 334 351 355 351 351 350 352 353 350 351 351 352 354 353 354 355 356 355 354 354 352 351 351 351 351 350 350 350 350 350 350 350 350
314 314 315 315 315 315 315 315 316 316 314 311 310 309 309 309 310 311 311 312 312 311 312 311 311 312 313 314 310 312 322 325 324 326 324 321 320 319 319 317 316 317 318 319 319 317 322 331 334 333 330 329 327 326 332 342 350 352 351 353 351 351 352 351 350 351 352 353 353 353 355 357 356 355 354 352 351 351 351 351 350 350 350 350 351 351 350 350
314 314 315 315 315 315 315 316 317 315 312 310 310 309 309 309 310 311 311 312 312 312 312 311 312 313 313 314 311 314 323 325 322 323 323 322 320 319 319 319 316 316 317 317 318 317 320 326 331 331 328 327 324 327 342 349 349 350 349 350 350 350 352 352 350 350 353 352 352 353 355 357 356 354 353 352 351 351 351 351 350 350 350 350 350 351 351 351
314 314 315 315 315 315 315 316 317 315 311 309 310 310 311 312 312 312 312 313 313 313 313 313 313 312 313 315 314 317 322 323 322 323 323 322 321 318 319 319 317 316 315 316 318 317 317 321 325 327 325 326 323 330 346 347 347 349 346 346 348 349 352 354 351 350 352 352 352 354 357 358 356 354 353 352 351 351 351 351 350 350 350 350 350 351 351 351
314 314 315 315 315 314 315 316 317 316 313 310 312 314 317 319 318 315 314 314 315 315 315 316 314 312 314 316 317 320 321 321 323 324 323 323 322 318 317 319 318 317 315 315 318 319 320 321 325 326 324 324 322 329 340 337 340 346 344 346 348 350 352 352 353 352 352 352 353 354 356 356 355 354 353 352 352 351 351 351 350 351 350 351 350 351 351 351
314 314 315 315 315 314 315 317 317 318 316 314 316 319 319 321 322 320 317 316 315 315 318 317 314 312 313 315 317 320 320 321 323 324 323 322 319 315 315 318 319 318 315 315 317 320 323 323 325 326 323 322 321 326 330 328 336 344 343 344 346 349 350 351 353 353 352 351 354 355 354 355 354 354 354 352 352 351 351 351 351 351 351 351 351 351 352 352
314 315 315 315 315 315 315 317 318 319 317 317 319 318 317 318 321 322 320 318 317 316 318 317 315 314 314 315 318 319 320 321 322 323 324 320 315 314 316 318 318 317 315 316 317 320 324 325 325 327 325 324 322 324 325 325 336 345 344 343 344 347 349 351 353 353 353 352 354 355 353 355 355 354 354 353 352 351 351 351 350 351 351 351 351 351 352 352
314 315 315 315 315 314 316 318 319 319 317 317 318 317 317 317 318 320 319 318 317 316 317 317 316 317 317 317 318 320 320 322 322 323 323 318 315 316 315 316 316 315 316 317 318 320 325 328 328 328 326 323 321 322 323 326 338 344 342 341 341 344 346 350 353 353 354 352 353 355 353 354 355 353 353 353 352 351 350 351 350 351 351 350 351 351 351 351
314 315 315 315 315 315 316 319 319 318 318 318 318 318 318 318 318 318 318 318 317 316 317 316 316 317 317 318 318 319 321 322 323 323 322 318 317 318 316 317 317 316 318 320 320 321 326 330 329 325 322 321 320 321 321 324 335 339 339 339 336 338 346 350 352 353 353 352 352 354 353 354 355 353 353 353 352 351 350 351 350 350 350 351 351 351 351 351
314 315 315 315 315 315 317 319 319 319 319 319 319 319 319 318 318 318 318 318 317 317 316 315 316 316 317 318 318 319 321 322 322 322 322 319 318 319 318 319 319 318 320 322 324 324 326 329 328 322 319 319 319 319 320 321 326 329 336 340 335 337 348 350 352 353 351 351 352 352 353 354 354 352 353 353 352 352 351 350 350 350 350 350 350 350 351 350
314 315 315 315 315 316 318 319 319 318 319 319 319 319 318 318 318 318 318 317 317 317 316 315 315 316 317 318 318 319 321 323 322 321 322 320 318 319 320 321 321 321 321 323 327 327 327 326 324 320 317 319 319 318 320 320 321 322 329 335 333 338 345 344 350 355 351 350 352 353 353 354 355 353 353 353 352 351 351 350 351 350 350 350 350 350 350 350
314 315 316 315 315 317 318 319 319 319 319 319 318 319 319 318 318 318 317 317 317 317 316 316 316 316 317 318 320 320 321 323 323 322 322 320 318 319 321 322 322 322 323 323 326 328 326 321 319 318 317 320 320 318 320 321 321 320 322 326 327 337 345 344 351 354 351 351 351 352 352 352 354 355 353 353 352 351 350 351 351 350 350 350 349 350 349 349
314 315 315 315 316 317 319 319 319 319 318 318 319 319 319 319 319 318 318 317 316 315 315 316 316 316 317 318 320 321 322 322 322 322 322 321 320 320 321 322 322 322 321 321 324 327 325 319 318 319 318 319 320 320 320 320 321 318 320 322 321 333 347 350 353 351 348 349 350 351 349 348 352 355 354 353 352 351 351 351 351 351 351 350 349 349 349 349
315 316 315 315 316 317 318 319 318 318 317 318 319 318 319 319 319 318 318 317 315 314 315 315 315 316 316 317 320 321 321 321 322 323 323 322 321 321 321 321 322 321 319 321 323 324 322 319 319 320 319 319 320 321 320 319 320 319 319 321 319 330 346 351 351 346 343 345 349 350 346 343 348 353 354 353 352 352 352 352 351 351 351 351 350 349 349 349
315 316 315 316 316 317 317 317 317 317 318 318 318 318 319 320 320 319 318 317 316 314 314 314 315 316 315 317 320 320 321 321 322 323 322 323 322 322 322 321 321 321 319 321 323 321 320 318 319 320 320 320 320 321 319 319 320 319 318 317 319 330 343 349 348 344 344 346 350 351 346 342 343 348 353 353 352 353 352 352 351 351 351 351 351 349 348 348
315 316 315 316 316 317 317 317 317 317 317 318 318 319 320 321 320 319 318 316 315 313 313 314 315 316 315 317 319 318 319 320 321 322 322 323 322 323 323 321 322 321 320 322 322 320 320 320 320 320 321 321 321 321 319 319 321 319 318 321 325 332 341 346 346 344 346 347 347 348 346 343 340 345 352 353 353 354 353 352 352 351 351 351 351 350 348 347
315 315 315 316 317 318 317 317 318 318 318 318 318 319 320 321 320 319 318 315 313 312 313 314 315 315 314 316 317 317 318 318 319 322 322 323 322 322 323 321 321 321 320 321 322 321 320 320 320 320 321 321 321 321 318 319 321 319 324 333 338 341 344 347 346 345 346 344 343 345 344 342 339 343 350 353 354 353 352 352 352 352 351 351 351 351 349 347
315 315 315 316 317 318 318 318 318 318 319 318 318 319 320 321 319 317 316 314 313 313 313 314 314 314 314 317 316 316 318 317 319 322 322 322 322 322 321 320 321 321 320 320 322 322 319 320 321 320 321 322 321 321 317 318 320 321 332 344 346 346 346 345 345 345 345 342 340 343 345 342 339 342 349 352 353 352 352 352 351 352 351 351 351 351 350 348
315 315 316 317 318 318 318 318 317 318 318 318 320 320 320 320 318 317 316 314 313 314 313 313 314 313 314 317 317 315 316 316 319 322 322 321 322 321 321 321 321 321 321 320 320 320 318 320 321 321 321 321 320 320 317 318 319 320 333 342 341 344 345 343 343 343 342 339 338 343 346 343 338 340 348 351 351 350 351 352 351 352 352 351 351 351 351 349
315 315 316 317 318 318 318 317 318 319 319 320 320 320 321 319 316 316 316 314 313 313 314 314 313 313 314 315 316 315 315 315 317 320 320 320 321 321 320 321 322 320 319 320 320 319 320 321 320 320 321 321 320 320 318 318 318 318 327 331 332 339 342 341 341 340 338 337 337 343 346 343 341 341 345 349 349 350 351 352 353 353 353 351 351 350 350 350
316 316 317 318 318 318 317 318 319 319 320 321 319 318 321 318 315 316 317 315 314 313 314 314 312 312 314 315 314 314 314 314 316 318 317 318 320 320 317 317 319 320 319 319 318 318 319 319 319 319 321 322 320 320 318 318 319 318 323 325 327 335 339 340 339 337 335 334 337 344 346 342 341 342 345 346 347 349 350 352 353 353 353 352 351 350 349 350
316 317 318 318 318 318 318 319 319 319 320 320 318 318 320 317 315 317 318 315 313 313 313 313 312 312 314 314 313 312 314 314 315 317 317 318 319 319 318 316 317 319 320 318 317 317 317 317 319 320 321 321 321 321 321 320 319 319 322 325 326 330 333 335 336 334 332 335 340 343 342 339 339 342 346 348 348 348 347 349 352 352 353 352 351 350 349 349
317 318 318 318 318 319 319 319 319 319 319 318 318 320 318 316 315 315 315 314 314 314 314 312 313 314 314 314 313 312 314 315 314 315 316 317 317 317 317 316 316 317 319 319 318 318 316 317 320 319 319 320 321 322 322 321 319 319 321 322 324 330 331 330 332 333 332 336 341 342 340 339 340 342 345 349 350 348 346 348 352 352 352 352 351 351 350 350
318 318 318 318 319 319 319 319 319 319 319 318 319 318 316 316 316 314 316 316 314 315 315 313 314 315 314 315 315 313 314 315 315 315 315 315 315 315 315 315 316 316 318 320 319 317 316 318 320 319 319 321 322 322 321 321 320 319 319 318 321 329 332 329 328 332 333 332 337 340 338 337 339 339 344 349 350 350 348 348 352 352 352 352 351 352 351 350
318 318 319 319 319 319 319 319 318 318 318 318 319 318 316 316 315 315 317 315 313 314 316 314 314 314 313 314 315 315 315 315 315 315 315 315 314 315 315 315 315 315 317 318 318 318 316 317 320 320 319 319 320 321 322 322 322 320 318 319 322 324 327 328 327 330 332 330 333 337 336 335 335 336 345 351 351 351 350 350 352 353 352 352 351 351 351 350
318 319 319 318 318 319 319 318 318 317 318 321 324 322 318 316 315 314 314 313 314 316 316 315 314 314 314 314 314 315 315 315 316 316 316 315 315 314 314 315 315 315 315 316 317 318 316 317 319 319 320 319 319 321 322 321 322 321 320 322 322 319 320 324 325 327 330 330 331 334 335 335 333 336 346 350 351 351 351 351 352 352 352 352 352 352 351 350
318 319 319 318 318 318 318 318 317 318 319 321 325 322 316 316 317 315 314 314 314 316 316 316 315 315 314 314 314 315 315 315 316 316 316 316 315 314 314 314 315 315 315 315 318 318 317 317 318 318 319 319 320 322 320 321 321 321 322 322 322 321 321 322 323 324 326 329 331 333 335 336 336 341 347 348 350 352 351 351 352 352 353 352 352 352 352 352
319 320 319 318 319 318 317 318 317 320 322 319 320 319 316 317 318 315 315 316 315 316 317 316 316 316 316 314 314 315 316 316 316 317 316 315 315 315 314 313 314 315 315 316 318 318 319 318 317 320 319 317 320 322 321 322 323 321 321 320 320 322 322 322 323 324 325 329 331 331 332 335 339 344 347 347 349 351 352 352 352 353 354 353 353 353 353 353
320 320 319 318 318 318 317 317 318 320 321 319 317 317 318 319 317 314 315 317 316 316 316 316 317 317 316 316 315 315 317 316 315 316 315 314 315 315 314 313 313 314 315 318 319 318 320 319 318 319 319 318 320 320 319 322 322 322 323 322 321 322 321 319 320 324 328 331 331 329 328 333 341 343 345 347 349 351 351 352 352 353 353 353 354 353 352 352
320 320 320 318 318 318 316 319 320 319 319 318 317 316 317 318 316 314 315 316 316 316 317 317 317 317 316 316 316 316 317 316 315 315 315 314 314 314 314 315 313 312 315 318 318 319 322 322 321 321 320 320 321 320 318 318 319 320 321 322 323 324 322 318 317 323 329 331 333 329 327 334 342 343 344 348 350 351 351 352 352 352 352 352 353 353 352 351
320 320 319 318 318 317 317 320 321 320 318 316 315 315 315 315 315 315 315 316 316 317 317 317 317 318 317 316 316 317 316 315 315 315 315 314 315 315 315 316 315 314 317 317 318 321 325 325 324 323 322 322 320 320 319 317 318 319 318 320 320 320 322 321 322 327 328 330 333 328 327 337 343 344 347 349 350 350 350 351 352 351 352 352 352 353 352 351
319 319 318 317 317 317 318 318 318 319 319 318 316 315 314 314 315 315 315 315 316 316 317 317 317 318 318 316 317 317 316 316 315 315 314 315 316 316 316 317 317 319 322 320 320 323 324 324 325 321 318 318 318 319 319 319 320 319 319 318 318 321 325 325 329 332 328 331 334 326 327 339 343 344 348 348 349 350 349 350 351 351 352 352 352 352 352 351
318 318 316 315 316 316 316 315 315 317 319 319 317 315 314 315 315 315 315 315 315 315 317 317 317 318 319 317 317 317 316 316 316 316 316 316 317 317 316 316 317 322 327 325 324 325 323 323 325 322 317 317 318 318 318 318 319 319 319 320 320 323 326 327 330 327 324 334 337 327 331 343 344 345 348 348 347 348 349 349 350 350 351 351 351 352 351 351
319 322 320 316 315 315 315 314 314 315 318 320 319 314 314 315 315 314 315 316 316 316 316 316 316 318 320 318 318 318 317 316 317 319 319 318 318 317 317 317 315 320 326 323 321 326 326 323 324 325 321 318 318 319 318 318 319 318 319 322 325 326 325 327 329 324 326 334 335 333 340 344 344 347 349 348 346 347 346 347 347 348 349 350 350 350 351 350
320 323 324 322 320 318 317 316 316 316 315 317 317 314 314 315 315 315 316 316 316 316 316 315 314 318 321 321 320 319 319 319 318 318 318 318 319 318 316 317 316 317 321 319 318 325 327 322 322 324 321 318 320 319 318 318 317 317 319 322 327 330 329 327 326 327 332 331 329 337 345 343 343 348 349 347 346 346 345 345 346 347 347 348 348 349 349 349
322 322 322 322 320 319 320 320 320 318 317 317 317 315 315 315 314 315 316 316 316 316 317 317 314 314 317 320 321 321 322 322 318 318 319 317 319 320 317 317 317 316 318 318 318 324 325 321 321 322 319 319 321 320 318 318 316 317 320 322 326 332 334 332 329 332 335 330 329 340 347 343 344 347 347 346 346 345 344 344 345 346 346 346 346 346 347 347
322 323 323 322 320 320 322 321 319 317 318 322 321 316 316 317 315 313 313 316 317 315 316 317 314 312 313 318 323 322 321 320 317 318 320 317 318 320 318 317 318 317 318 319 318 320 322 322 324 324 321 320 322 321 320 318 316 317 321 323 326 331 335 337 336 336 337 335 336 343 346 345 345 345 345 345 345 344 343 344 344 345 345 345 344 345 345 345
322 324 324 324 323 322 321 318 317 318 318 320 320 317 315 316 315 314 313 315 318 317 315 315 314 313 313 316 320 319 317 318 317 317 317 317 318 319 318 317 317 317 319 319 319 320 320 321 324 327 325 321 322 322 320 319 318 318 321 326 328 328 331 336 338 338 339 340 341 343 345 346 345 345 344 343 343 343 342 342 343 344 344 344 343 344 344 345
322 323 324 326 326 323 321 316 315 320 319 317 318 318 317 316 314 314 313 312 315 317 316 314 314 314 315 316 317 315 314 316 316 315 315 315 315 316 317 317 316 317 319 319 320 322 321 319 323 327 325 323 324 323 320 320 320 319 321 327 330 326 326 333 337 337 339 341 342 343 344 345 345 344 343 342 341 341 341 342 342 343 343 342 342 343 344 344
320 321 323 327 326 322 321 317 315 318 317 315 318 319 318 316 313 313 315 313 313 315 315 315 314 316 317 317 316 315 314 314 314 314 313 314 314 314 315 315 315 317 320 319 319 322 321 319 321 323 323 325 327 325 322 320 319 319 320 325 329 329 328 332 336 337 338 340 341 342 343 343 344 343 341 340 340 341 341 340 341 341 341 341 342 343 343 343
Wind_Speed
9 8 7 7 6 6 6 7 7 8 8 8 7 6 6 6 6 6 5 6 6 7 7 7 8 9 9 9 9 10 10 11 12 15 17 12 11 12 10 13 16 20 24 22 19 17 16 15 14 14 13 9 6 6 6 6 3 2 2 2 2 0 2 4 6 4 5 9 11 11 10 13 13 11 14 15 16 16 12 13 11 10 13 18 23 27 26 24
10 9 8 7 7 7 6 6 7 7 7 8 8 7 6 6 6 6 6 6 6 7 7 8 8 8 9 9 9 10 10 10 13 16 13 6 9 15 13 15 17 19 24 24 20 18 17 17 16 14 12 7 4 4 4 4 3 3 2 2 3 1 1 2 4 4 6 12 12 10 12 14 14 13 14 12 14 15 13 13 15 17 18 21 25 26 24 24
10 10 9 8 8 8 7 7 7 7 7 7 8 7 7 6 6 6 6 6 6 6 7 8 8 8 9 9 10 9 9 10 12 13 9 8 11 14 16 17 18 19 21 22 19 16 15 15 15 14 11 6 4 4 3 3 2 2 2 3 3 2 2 5 4 4 9 15 14 11 13 13 12 12 11 13 15 13 12 13 16 19 22 26 27 24 23 23
10 9 9 9 9 8 8 8 8 8 7 7 7 7 7 7 6 6 6 6 6 6 6 7 8 8 8 9 9 8 7 8 7 7 6 9 10 13 18 18 18 19 19 19 18 15 13 13 15 14 10 5 4 3 2 4 2 1 1 4 4 2 2 5 5 10 15 15 14 13 14 13 11 10 12 16 13 8 10 14 18 22 27 29 28 24 24 22
9 8 8 9 9 9 9 9 9 8 8 7 7 7 7 7 7 7 6 6 5 5 6 6 7 8 8 8 9 7 5 3 0 1 3 8 10 13 18 18 17 19 20 20 19 16 13 14 15 12 7 4 4 3 2 5 4 1 2 3 2 2 1 5 10 17 19 15 15 14 13 12 11 10 13 14 7 7 11 12 19 26 30 31 29 25 24 22
8 8 8 8 9 10 10 10 10 10 9 8 8 7 7 7 7 7 7 6 6 5 5 5 6 7 7 7 8 6 3 1 3 2 2 6 10 13 17 18 18 20 21 21 20 16 15 16 15 9 6 3 3 3 1 5 6 2 2 3 1 4 4 8 13 19 20 17 14 13 12 12 12 10 10 7 4 9 15 14 19 25 28 29 28 25 24 22
7 7 7 8 9 10 11 11 11 11 10 9 8 8 7 7 8 7 7 6 6 5 5 5 6 6 7 7 7 5 6 3 3 1 1 4 9 14 17 18 18 21 22 22 20 17 18 19 13 9 6 3 3 4 2 3 6 3 3 1 3 3 6 9 12 19 20 16 14 13 13 12 12 11 8 6 7 13 17 17 21 26 26 25 26 25 24 22
7 6 7 8 10 11 11 12 12 11 11 10 9 8 8 8 8 7 7 6 6 5 5 5 5 5 6 6 6 5 6 5 0 2 2 1 7 13 17 19 20 20 22 22 20 18 19 17 13 9 5 2 1 1 2 3 4 4 3 1 5 5 7 7 10 16 17 16 15 15 13 9 11 13 8 7 11 16 17 19 23 27 25 23 24 24 23 23
7 6 7 9 10 12 13 13 12 11 11 10 10 9 8 8 8 7 7 6 5 6 6 5 4 4 5 5 6 4 3 4 3 2 4 4 4 12 17 20 21 20 20 20 19 18 17 15 14 10 3 2 1 2 1 2 1 5 5 3 5 7 8 8 9 12 14 15 14 14 11 9 13 14 7 7 15 18 19 21 24 27 24 22 22 23 23 23
7 6 7 9 11 12 13 13 12 11 11 11 10 9 9 8 7 7 6 6 5 5 6 5 4 4 4 4 3 1 2 3 4 3 5 6 3 10 16 20 21 20 19 19 19 18 16 14 15 12 3 2 2 3 1 2 4 8 8 6 7 8 7 6 8 8 10 11 9 12 10 8 12 10 3 9 18 20 21 22 24 26 23 21 22 22 23 23
6 6 7 9 11 13 12 12 12 12 12 11 10 9 8 8 7 6 5 5 4 5 5 5 4 4 4 4 3 2 3 2 3 6 6 6 5 7 12 17 19 19 18 18 18 18 15 13 15 11 3 1 2 2 4 5 9 12 12 12 8 8 8 6 7 6 6 5 6 13 11 7 6 4 5 15 20 21 23 22 23 23 21 20 21 22 21 21
6 6 7 10 12 12 12 12 12 14 14 12 9 7 7 7 6 5 5 4 4 4 4 5 5 4 5 7 7 4 4 4 5 7 8 7 5 6 9 13 15 16 16 15 15 16 14 14 13 8 3 1 3 1 4 5 11 12 10 9 6 6 6 5 5 4 2 4 8 13 9 5 5 4 10 20 22 22 24 23 22 21 20 19 20 20 19 18
7 6 8 10 12 12 12 12 13 15 15 12 8 5 5 5 4 4 4 3 3 3 4 5 5 6 6 6 5 4 6 5 6 7 7 7 6 6 7 10 12 13 14 12 11 13 14 14 13 7 3 1 3 2 2 5 11 8 5 5 5 4 3 2 4 4 2 6 9 6 3 4 5 7 13 20 23 23 22 22 22 21 19 18 18 18 17 17
8 7 8 10 12 13 13 13 15 15 14 10 6 3 3 3 3 3 3 2 3 3 4 5 5 6 6 4 1 5 7 5 6 6 6 7 8 8 7 8 10 11 12 11 10 12 13 13 12 9 4 2 3 3 2 7 9 6 4 4 3 3 3 2 3 5 4 8 6 1 2 4 5 9 14 19 23 24 21 20 22 21 19 18 17 17 17 17
8 7 9 11 12 13 13 14 15 15 13 7 4 3 1 2 2 3 3 2 3 3 4 5 5 6 7 5 1 6 7 5 4 4 5 5 6 8 9 9 9 10 11 9 9 12 13 11 8 5 1 3 3 1 5 6 4 3 3 3 2 3 4 2 4 5 4 5 3 1 1 3 5 11 15 18 21 22 20 20 21 20 20 19 17 16 16 16
9 8 9 11 12 13 13 14 14 14 11 6 4 4 2 2 3 2 2 2 3 4 4 5 5 5 6 2 4 7 7 4 2 3 5 5 4 5 9 10 9 10 11 9 8 11 13 9 4 1 2 2 1 2 6 5 3 3 2 2 4 4 4 2 5 7 5 5 3 1 2 2 4 10 14 18 21 20 19 20 20 20 20 19 18 16 16 16
9 9 9 11 12 13 13 13 12 12 10 6 5 5 4 3 2 1 2 2 4 5 6 6 5 4 2 3 6 7 6 3 3 2 3 6 5 3 8 13 11 10 12 12 11 11 11 8 4 2 1 0 1 2 5 4 4 4 1 1 4 5 6 4 4 7 8 9 6 3 2 1 4 11 14 16 20 20 18 19 20 19 19 18 17 17 16 17
10 9 9 11 12 12 12 12 11 11 9 6 6 7 6 4 1 2 2 3 4 5 6 5 2 2 2 4 4 4 5 3 4 3 3 5 4 3 8 13 14 12 12 12 9 9 10 6 2 2 1 2 2 3 4 2 3 6 4 2 3 5 6 6 5 7 12 12 9 7 4 1 6 12 14 14 18 20 18 18 19 18 18 17 17 17 17 17
10 9 9 11 12 12 11 10 9 10 8 5 6 7 7 6 3 3 4 6 6 4 4 2 1 2 1 2 2 2 2 4 5 4 5 6 7 8 9 12 15 16 13 9 5 5 7 5 2 3 3 3 2 4 3 1 3 8 7 3 2 4 4 5 5 8 13 11 8 9 6 4 7 11 14 14 16 18 17 17 18 17 18 17 16 17 16 17
10 9 9 10 11 11 9 8 8 9 8 7 5 5 6 8 3 2 8 12 8 5 5 6 7 7 3 1 1 3 3 5 5 5 7 9 11 13 12 14 16 14 8 6 6 5 6 5 4 5 3 3 2 3 1 1 4 5 5 4 1 2 3 5 6 9 13 8 7 9 5 5 7 10 14 14 13 16 18 18 18 18 19 18 17 17 17 18
10 8 9 10 11 10 7 7 7 7 8 8 7 5 5 6 3 3 9 11 8 7 7 6 7 8 4 1 1 3 5 6 6 7 9 11 13 12 11 12 11 7 4 6 8 5 5 6 6 4 2 3 2 2 2 2 5 5 4 4 3 3 2 3 5 11 13 7 5 8 6 6 7 9 14 13 13 17 21 21 20 20 19 18 18 18 18 18
9 8 8 9 10 9 6 5 5 5 5 7 9 7 7 6 4 6 7 7 9 9 6 4 6 7 3 1 1 3 6 5 7 9 11 14 11 6 7 7 5 6 5 7 8 4 5 7 6 3 2 3 2 2 2 2 4 4 4 6 3 4 4 4 4 10 11 6 4 8 7 5 6 8 13 15 13 15 21 22 22 22 20 18 20 19 18 18
9 8 8 8 9 8 5 3 4 4 3 5 8 8 7 6 6 8 5 5 8 8 4 3 5 3 1 1 3 7 7 5 6 9 12 15 11 6 8 5 4 7 6 8 9 6 5 4 3 5 5 5 3 3 4 3 3 2 4 6 2 5 4 2 5 10 9 4 3 8 5 2 4 7 10 14 13 11 15 16 16 20 20 19 20 20 20 20
8 7 7 7 8 7 4 2 2 3 4 4 5 6 7 7 8 8 5 3 4 5 4 1 2 1 2 2 4 8 8 7 8 10 12 14 12 8 7 6 6 7 5 7 9 8 5 1 4 7 5 4 3 4 4 3 3 2 4 5 4 5 3 1 6 10 7 2 3 8 4 1 5 7 8 11 11 10 13 12 10 14 18 19 19 21 23 23
7 6 6 7 8 7 4 2 2 4 6 5 4 7 8 8 8 7 5 1 1 3 4 2 2 1 2 2 4 7 8 9 9 11 13 14 12 8 6 5 5 4 3 6 7 7 4 3 6 7 4 4 3 3 4 4 3 2 5 8 7 6 5 6 11 10 5 3 6 8 4 2 6 9 9 9 9 11 14 15 14 13 15 18 20 21 24 24
7 6 6 7 8 6 5 5 5 7 8 5 5 7 7 8 8 7 5 0 1 4 4 2 2 2 2 1 4 7 7 6 6 10 13 12 10 8 6 3 1 3 4 5 4 2 2 4 5 5 5 6 4 3 3 3 3 2 3 7 9 7 9 12 13 9 4 2 6 9 5 1 4 8 10 10 11 13 12 15 20 17 15 17 20 22 23 24
7 6 6 7 7 6 6 7 8 9 7 4 5 6 6 7 7 6 4 2 3 3 3 3 2 2 2 3 5 5 5 5 6 9 12 13 9 7 7 3 2 4 4 3 3 2 3 5 4 3 5 5 4 4 4 5 4 1 2 4 8 8 10 14 12 7 2 2 5 8 5 2 2 5 10 13 13 13 11 12 18 22 20 17 18 21 24 26
7 6 6 7 7 5 6 6 7 8 5 4 6 6 7 8 6 5 3 2 2 3 2 2 1 2 2 3 5 3 5 7 6 6 11 13 8 5 6 5 5 6 3 5 5 2 3 6 6 5 4 4 4 3 5 8 4 1 3 3 5 7 9 11 8 3 2 3 5 7 5 4 2 2 8 12 12 14 16 14 16 22 24 21 19 19 22 28
6 5 6 7 6 6 6 6 7 6 5 7 8 7 8 8 4 2 0 2 3 2 1 2 1 2 2 3 3 5 5 4 2 4 9 11 6 2 3 5 6 6 3 2 5 2 1 4 5 6 5 4 5 3 7 10 4 2 5 5 5 5 6 6 4 2 3 3 4 8 9 5 2 3 7 10 11 14 16 14 17 23 25 24 22 20 20 27
5 5 6 6 6 7 7 7 7 7 7 9 9 10 10 6 2 1 2 3 2 2 2 4 3 2 1 2 2 4 3 3 3 6 7 6 4 3 4 5 5 5 3 1 3 1 1 1 2 4 5 4 4 4 6 8 4 5 7 7 8 7 6 4 2 2 3 3 2 8 11 6 2 3 7 9 7 10 13 11 15 23 25 24 24 23 21 25
5 5 6 6 6 8 9 8 8 9 9 10 11 10 6 1 1 2 4 2 2 2 3 3 2 2 1 2 1 2 2 2 3 4 5 4 4 4 4 4 3 3 2 1 2 1 2 2 2 4 7 5 3 2 2 2 1 2 4 6 6 5 4 3 2 1 3 2 2 4 11 8 5 2 5 8 5 5 10 12 14 20 24 26 26 26 24 25
5 5 5 5 6 8 10 10 10 11 11 12 12 6 2 1 2 2 2 1 2 2 1 1 2 2 2 1 1 1 1 1 3 2 3 2 3 3 1 0 2 2 2 2 2 1 3 4 1 3 7 7 5 3 3 3 2 3 4 6 5 3 3 2 2 2 4 2 3 1 7 6 5 1 2 7 9 7 9 13 17 20 25 27 28 30 28 25
4 4 4 6 7 10 10 10 12 13 14 16 9 1 2 3 4 2 2 1 2 2 1 1 2 1 1 2 1 1 1 1 2 1 2 1 1 2 1 1 1 1 1 1 2 2 3 2 2 3 4 8 9 6 4 4 5 6 6 6 6 4 4 3 2 1 3 3 2 3 5 3 4 1 2 3 8 10 11 14 17 21 25 26 28 34 35 28
3 3 4 6 8 10 10 11 14 15 17 15 5 2 3 4 2 2 2 1 1 2 1 1 1 1 2 1 1 1 1 3 3 2 2 1 2 2 2 3 1 0 1 1 2 2 3 2 5 5 3 8 11 9 5 4 5 7 6 5 5 5 4 3 4 4 2 2 4 5 4 3 2 2 2 4 6 9 12 13 15 19 22 22 24 31 34 30
2 4 5 7 7 8 10 12 14 16 16 10 3 3 4 3 1 2 1 2 2 2 2 1 1 2 2 1 2 2 1 3 3 2 3 2 2 1 1 2 2 1 1 2 1 1 2 2 2 1 1 8 11 9 6 5 4 4 4 5 4 5 4 2 2 3 1 2 3 3 3 2 1 1 2 4 4 3 7 12 14 16 19 19 20 24 28 29
2 4 6 7 7 8 11 13 14 17 13 6 5 4 3 1 1 1 1 2 2 3 3 1 2 2 2 1 2 3 3 3 1 2 4 2 1 2 0 1 1 0 2 2 2 1 1 1 1 1 3 7 8 7 8 6 4 3 4 6 2 1 3 2 1 1 1 3 3 3 4 1 1 2 1 4 4 3 4 10 13 15 18 20 21 23 24 27
3 4 5 6 8 10 12 14 15 15 11 8 6 3 0 1 1 2 2 3 2 2 1 1 2 2 1 1 2 3 3 2 0 1 2 1 1 3 3 3 1 2 3 2 2 1 2 3 1 1 4 4 3 4 6 4 4 4 5 6 4 1 1 0 2 2 2 4 3 3 6 3 2 2 1 4 5 5 3 8 12 13 17 20 21 23 25 29
3 3 5 8 10 11 12 14 14 11 9 7 4 2 0 1 1 2 4 3 1 1 2 2 2 1 0 1 1 3 3 0 1 1 2 1 1 1 3 2 1 2 3 2 2 1 2 4 1 1 2 1 1 4 4 3 2 1 2 7 5 3 4 2 2 3 4 3 2 3 4 4 4 3 1 3 4 3 2 5 8 12 15 18 20 21 25 29
3 2 5 9 11 11 12 13 12 11 9 5 2 1 0 2 2 4 5 2 1 1 2 2 1 1 1 1 1 2 2 1 1 1 1 2 1 1 2 2 2 3 3 1 2 1 1 2 0 2 0 1 1 6 6 5 3 1 1 5 3 2 4 4 2 2 3 3 3 3 2 3 3 1 1 2 2 1 3 4 5 8 12 15 18 20 20 22
3 2 4 8 10 10 11 10 11 12 7 2 1 1 1 2 4 7 8 4 1 3 2 1 1 2 1 0 1 1 3 3 2 1 1 1 0 1 1 1 2 5 4 1 1 0 1 1 1 1 1 2 3 3 5 5 6 5 5 6 3 0 1 2 1 0 1 3 3 4 3 2 1 1 1 1 1 1 3 4 4 6 7 9 12 16 17 18
4 2 3 8 10 10 10 9 9 6 2 1 1 1 2 3 5 8 10 7 4 4 3 1 1 2 1 1 1 1 2 3 2 1 2 1 1 1 1 3 2 3 2 1 1 0 1 1 2 2 1 2 1 2 1 2 2 4 6 7 7 4 3 5 4 1 0 2 2 3 4 2 3 2 3 2 3 3 3 4 5 5 6 7 8 13 17 19
4 2 3 8 9 9 9 6 3 2 1 2 2 1 3 5 4 7 10 8 5 4 3 3 2 2 2 1 2 2 2 3 2 2 2 2 1 1 4 9 5 2 1 1 1 1 1 1 1 3 2 3 3 2 1 1 1 1 2 3 5 4 5 7 7 4 3 2 1 1 3 1 3 2 3 3 3 4 4 6 7 6 7 8 9 12 17 21
3 2 3 7 8 9 7 3 1 2 1 1 2 1 3 4 4 5 7 7 5 4 4 3 1 2 3 2 1 2 2 2 2 2 1 1 2 1 7 11 4 2 1 0 1 0 1 0 1 2 2 1 1 2 3 2 1 2 3 3 0 3 2 3 3 3 5 4 2 3 3 1 2 3 3 3 6 6 5 6 8 8 8 9 11 13 14 17
3 3 5 7 7 7 5 2 1 2 2 2 3 3 4 4 5 6 5 5 5 3 2 3 2 3 3 2 2 3 2 1 2 3 1 1 2 3 9 12 6 0 1 1 1 1 1 0 1 1 1 3 4 4 4 2 2 2 2 3 3 2 0 2 2 1 4 3 2 5 4 2 3 3 4 5 8 7 7 8 9 8 9 9 11 12 12 13
1 2 6 8 7 6 5 2 1 1 1 2 3 4 4 3 5 7 4 5 6 3 2 2 2 3 3 2 3 4 5 3 2 2 1 1 1 3 8 12 9 4 3 3 2 1 0 1 1 2 2 3 3 2 1 2 4 3 2 5 5 2 1 2 3 3 4 2 2 3 2 3 4 5 7 7 7 7 8 8 7 7 8 9 10 11 11 12
1 1 3 5 9 11 8 5 4 2 1 1 1 3 4 1 3 6 4 4 7 6 4 4 3 2 3 3 3 6 7 5 3 2 1 2 1 2 7 11 11 9 5 4 2 1 1 2 1 2 4 4 2 1 2 3 3 4 5 7 7 3 3 2 3 4 4 4 3 2 3 7 9 8 9 10 8 7 8 7 7 7 7 9 10 9 9 9
2 2 1 2 5 8 8 9 8 3 1 1 0 2 4 2 2 4 5 4 7 7 4 5 5 3 2 3 3 4 5 4 4 3 2 2 2 3 6 7 11 13 8 4 5 1 3 3 2 4 8 7 4 2 2 1 3 5 8 9 9 6 4 3 4 2 4 6 4 3 7 10 11 11 11 12 9 8 9 8 8 8 7 8 8 8 8 7
3 2 2 2 1 1 3 6 8 4 3 2 1 0 3 3 3 3 4 3 6 7 4 3 7 7 2 1 2 2 3 3 4 3 1 2 2 3 4 4 8 15 10 5 6 3 2 2 1 1 5 7 5 4 4 4 3 3 8 11 12 9 5 3 3 2 1 3 2 8 12 10 10 13 12 11 10 10 11 9 9 9 8 8 8 8 8 6
5 5 4 4 3 1 1 3 3 2 3 3 2 2 2 3 4 2 2 3 3 6 5 3 5 8 5 2 2 2 2 2 3 2 1 2 2 2 3 2 5 12 9 4 5 4 0 1 2 2 4 5 4 3 6 6 3 3 10 12 12 10 7 6 5 5 5 3 2 10 12 7 8 12 11 11 13 13 12 10 10 10 10 9 9 9 9 8
5 4 2 3 4 3 3 2 0 1 2 2 2 2 1 2 3 1 2 3 2 3 4 4 2 4 5 5 5 4 2 0 1 2 1 1 1 1 2 1 2 7 8 4 3 4 2 1 1 2 2 3 5 7 9 6 3 5 13 15 15 11 8 7 5 4 6 4 5 10 11 7 8 12 12 12 13 14 13 11 10 11 11 12 11 11 11 12
5 5 3 3 2 3 3 3 2 1 1 2 1 1 1 1 2 1 2 4 3 2 2 2 2 1 2 6 8 5 2 2 2 3 3 2 1 2 2 1 2 3 5 4 2 4 4 1 1 1 1 1 4 7 10 7 1 4 13 16 14 10 6 5 4 4 3 3 9 9 8 6 9 14 14 12 13 14 14 12 12 11 11 12 12 12 13 13
4 4 3 3 1 3 2 1 1 1 1 1 1 1 0 1 1 1 2 4 6 6 3 1 1 1 3 6 7 7 6 2 0 3 3 3 4 5 5 5 4 3 3 3 2 2 2 1 1 1 2 1 4 5 7 7 3 3 7 8 8 7 5 3 3 6 4 3 6 4 3 6 11 14 13 12 13 14 13 12 12 12 13 12 12 12 13 13
Wind_Direction
359 357 353 347 339 331 326 321 318 316 317 320 326 332 330 321 314 305 301 301 300 301 301 302 300 297 293 289 285 280 276 271 270 258 246 243 226 215 198 192 199 192 184 177 174 178 171 160 157 164 163 157 166 185 203 217 235 279 307 317 341 181 188 177 176 163 138 145 142 143 139 130 129 121 117 115 107 106 107 104 107 105 122 145 150 149 149 152
356 356 353 349 341 331 321 315 312 309 307 309 313 319 323 322 315 306 302 299 300 302 301 303 302 300 299 295 290 283 278 276 274 262 246 239 220 209 196 191 200 197 190 186 180 180 176 165 162 164 158 148 156 178 203 215 227 247 292 331 353 5 198 156 141 142 149 147 138 134 136 132 131 131 132 127 118 117 111 105 112 112 119 138 145 147 150 154
355 354 352 351 346 336 327 319 311 305 302 302 304 306 310 314 314 307 301 299 300 301 302 305 303 302 302 299 299 290 286 290 281 270 249 224 213 200 194 196 199 197 195 191 185 186 185 175 169 163 152 143 150 166 198 210 232 240 267 345 16 18 109 118 114 127 137 139 132 127 129 123 128 137 139 134 130 131 131 132 131 128 133 139 144 149 152 156
357 356 355 354 351 347 340 332 321 311 303 299 299 297 299 303 308 309 304 298 296 298 301 302 303 302 303 305 303 299 304 309 286 268 240 215 211 196 194 198 197 192 191 190 186 184 185 181 171 163 156 139 148 169 206 212 231 198 251 6 53 59 91 126 140 130 131 133 123 123 127 121 130 140 138 136 134 142 151 152 151 146 145 145 148 153 155 157
4 4 4 2 0 358 353 344 333 320 309 303 299 295 294 295 300 308 308 300 295 296 298 298 303 302 304 307 303 304 311 325 70 201 198 199 208 199 195 198 194 189 185 184 185 179 177 177 167 162 165 146 151 178 221 209 219 224 278 1 102 176 115 145 150 137 136 130 117 125 133 130 132 132 142 145 137 155 158 162 160 153 150 151 151 154 157 157
13 12 13 11 5 2 357 349 338 326 315 307 302 296 291 289 292 302 308 305 296 295 298 296 301 301 304 306 304 297 258 186 72 82 175 196 204 201 198 195 190 188 183 182 184 178 171 170 166 160 162 162 173 200 223 195 212 242 7 20 186 211 151 145 150 144 143 133 122 131 132 129 128 125 139 128 90 147 156 161 160 153 151 152 152 154 158 160
19 19 18 13 5 360 354 347 340 330 318 307 302 296 288 285 284 292 305 307 300 302 304 300 300 301 304 304 306 289 252 266 33 72 205 210 204 200 199 191 188 189 184 183 183 175 170 168 166 157 153 164 186 216 234 182 204 243 342 22 169 170 143 144 151 150 146 133 126 129 130 132 132 134 133 93 103 149 158 161 159 153 151 151 153 155 159 162
21 23 21 13 3 357 352 346 341 333 323 309 299 292 287 282 278 285 302 308 305 307 308 309 307 303 306 305 305 296 264 261 48 99 84 145 200 196 193 186 185 188 186 188 183 172 169 167 165 157 160 178 141 222 210 167 188 214 284 203 145 132 138 139 144 150 141 129 128 127 124 123 131 137 127 102 129 149 155 158 159 154 152 154 156 157 160 163
20 23 21 11 2 355 350 346 341 336 329 315 299 291 287 282 278 284 300 312 309 308 314 318 320 307 305 304 300 299 259 230 195 123 75 68 178 187 187 184 183 185 185 184 181 173 167 166 169 166 173 176 82 9 173 167 155 191 208 174 142 131 137 135 137 148 137 131 132 123 112 104 127 133 109 118 140 148 152 154 158 156 154 157 159 160 163 166
21 26 20 10 3 355 349 346 345 342 334 323 306 291 289 287 280 283 301 318 311 309 315 315 324 312 299 303 300 278 180 199 200 165 98 73 125 174 184 186 181 183 183 177 176 176 173 172 175 178 171 93 30 7 92 147 129 168 163 117 115 116 114 122 128 138 134 137 135 123 117 107 134 145 115 140 147 149 149 150 156 158 158 160 161 164 168 170
21 24 18 10 4 356 351 348 349 348 341 332 314 292 287 286 279 284 306 320 312 309 312 316 325 316 307 292 261 211 156 156 174 164 128 102 104 149 178 187 183 183 183 176 174 178 177 174 179 190 196 37 327 24 80 125 137 151 136 97 83 91 85 91 113 128 131 148 137 118 115 109 140 164 137 147 152 153 150 149 156 159 161 163 164 168 170 173
18 20 16 10 4 359 355 351 350 349 344 338 322 298 287 286 282 292 312 318 315 312 307 318 327 327 318 286 263 225 159 124 137 149 137 133 125 129 167 184 189 190 189 182 177 177 174 173 179 187 184 332 314 62 74 128 145 149 136 102 87 92 83 83 110 133 136 168 145 119 112 135 164 144 138 150 155 156 153 152 158 160 163 164 164 167 170 173
14 15 15 9 4 2 358 354 350 346 346 344 334 316 294 289 284 293 310 312 316 317 307 315 324 328 315 289 274 208 176 125 121 143 137 143 150 151 169 184 191 195 198 196 186 179 177 177 180 180 191 318 344 352 20 154 160 151 133 117 120 122 102 93 119 124 126 159 152 131 137 172 164 139 145 155 156 155 154 156 160 163 165 166 166 167 171 177
8 10 12 8 4 2 1 357 351 348 350 351 354 348 312 285 278 293 305 313 326 321 313 315 320 326 306 280 258 193 182 133 119 142 143 150 162 168 176 185 189 193 196 200 197 188 181 178 181 186 208 315 339 334 70 148 169 156 138 137 137 151 142 133 139 129 147 164 149 22 227 171 154 149 153 160 160 157 157 161 164 165 167 169 171 170 173 181
0 5 8 7 3 1 1 358 353 353 355 3 21 18 343 289 291 304 315 334 343 326 323 320 322 328 305 283 188 174 170 148 135 150 166 165 167 177 180 182 187 190 186 188 191 191 189 183 181 186 229 318 317 309 124 138 164 165 160 152 157 164 141 169 191 166 171 171 146 10 191 159 151 157 158 163 166 161 160 165 167 167 170 171 175 175 175 181
355 0 5 5 1 359 1 360 358 360 4 15 31 33 26 340 317 319 338 354 344 326 324 314 315 325 308 290 138 150 150 163 170 167 194 190 173 178 182 179 178 180 175 167 164 173 182 183 182 203 322 301 281 149 143 135 150 187 242 169 156 157 146 170 205 198 182 159 172 272 151 119 144 159 160 166 171 167 163 167 170 170 171 173 177 179 179 181
353 356 2 2 358 357 0 3 4 7 12 23 43 46 31 2 335 318 337 351 339 322 312 308 309 305 280 131 129 126 109 138 175 154 187 188 182 184 186 179 169 167 164 156 144 143 155 159 175 202 10 118 191 176 170 161 169 188 248 152 144 153 160 159 193 206 184 168 186 211 178 89 137 159 161 168 174 174 170 169 172 173 173 176 178 181 184 184
351 353 359 358 355 355 1 7 7 9 16 38 61 48 32 24 337 291 306 332 332 321 313 309 303 273 206 151 137 104 78 116 158 137 141 165 165 154 180 176 165 156 149 150 141 133 145 140 157 198 167 176 187 202 190 160 171 176 176 159 132 156 177 176 172 181 179 178 183 187 198 154 142 159 165 170 176 181 179 173 172 176 178 178 180 185 189 190
349 350 354 355 352 353 3 10 10 14 26 62 67 39 27 16 327 281 319 320 305 306 317 283 229 297 262 174 156 69 74 137 146 139 138 151 140 133 162 167 157 150 142 150 150 137 151 140 152 203 207 188 180 210 229 308 194 174 167 167 145 158 178 183 169 165 175 181 184 185 191 169 158 166 171 172 177 184 184 178 177 179 182 183 184 190 193 198
346 346 350 352 350 352 6 14 16 28 47 76 65 29 18 8 347 295 325 316 297 290 294 279 271 286 293 206 129 70 125 152 153 152 143 145 134 124 139 147 145 147 146 152 147 153 170 173 199 207 186 145 158 192 163 101 168 149 142 141 170 209 160 164 165 167 178 183 185 186 182 171 172 174 177 171 170 183 187 185 185 184 186 186 188 193 197 204
344 344 349 351 348 353 10 16 25 45 59 70 58 42 29 14 356 321 326 317 313 313 297 279 262 267 277 265 337 76 126 139 139 149 145 144 137 121 131 142 142 146 143 126 119 132 176 200 210 199 173 154 155 161 115 79 127 130 135 101 355 280 147 137 166 169 183 194 179 183 185 178 181 180 179 172 169 186 192 192 192 191 189 188 190 195 200 205
345 344 349 353 349 355 12 16 30 45 55 60 52 47 36 18 345 331 329 308 314 323 305 260 250 264 285 275 239 139 136 126 125 142 147 153 154 135 143 163 155 136 131 131 127 134 183 216 213 153 157 164 107 127 135 78 125 142 125 87 358 270 128 102 163 167 182 203 176 182 194 180 180 182 178 181 186 191 193 195 198 195 191 190 193 196 200 204
348 345 351 359 352 356 16 18 24 33 35 41 41 36 21 2 344 338 328 292 306 324 323 259 251 263 350 348 195 171 159 137 140 150 158 165 167 157 155 158 134 133 146 157 158 168 186 229 199 135 159 166 121 128 139 125 144 151 129 126 194 217 161 102 162 169 178 201 177 178 192 178 177 186 184 192 197 194 193 195 197 196 195 196 195 198 202 204
353 350 355 7 360 359 12 357 358 16 360 357 13 13 358 345 340 336 328 289 291 323 346 332 269 254 66 57 145 167 160 139 145 156 165 169 162 157 152 135 133 142 143 146 158 177 178 70 112 134 159 172 145 142 153 177 184 173 182 186 194 191 197 75 147 165 168 172 170 162 168 228 197 198 195 194 196 198 200 198 193 194 198 199 198 203 208 208
357 358 2 14 7 2 8 356 337 341 336 323 327 340 337 336 332 327 331 303 245 329 357 36 7 39 79 106 137 149 145 133 138 154 169 172 162 153 140 136 148 149 140 136 150 182 187 141 136 135 143 164 177 178 177 203 212 206 206 212 216 189 154 131 145 158 166 191 191 178 189 217 193 205 203 187 191 201 203 206 205 196 195 199 200 205 211 212
359 3 9 17 11 2 358 351 335 326 323 308 310 321 323 328 318 312 328 39 102 356 348 20 22 77 82 144 150 149 146 130 138 158 168 172 166 157 144 136 125 138 155 141 140 197 166 149 161 155 149 153 186 211 180 191 219 243 203 204 214 191 144 147 159 170 190 189 186 200 233 239 185 211 204 185 194 203 201 209 212 205 197 199 201 205 210 212
359 4 9 14 14 1 343 336 327 323 321 306 305 309 313 319 307 304 319 129 97 353 315 334 17 82 58 117 143 156 153 133 140 158 168 171 171 170 161 153 136 140 148 145 168 197 142 149 164 154 154 158 196 211 176 187 215 243 80 174 194 181 158 163 172 187 205 101 152 197 239 274 228 212 196 187 198 207 205 212 215 211 206 203 202 205 209 213
359 4 8 8 10 360 342 331 325 325 320 303 300 296 305 314 304 299 306 117 57 334 317 340 64 94 54 134 133 100 119 135 144 157 172 173 169 170 170 179 171 143 139 182 187 158 145 179 179 162 177 197 211 204 164 182 224 342 79 128 174 180 172 172 179 189 168 149 172 189 208 241 240 162 179 186 198 212 214 213 213 213 210 206 204 205 208 215
359 3 6 2 359 356 347 336 334 331 314 304 302 297 303 309 290 268 265 79 7 333 9 355 21 67 46 128 100 61 96 120 110 139 167 176 172 159 163 173 161 131 112 217 206 164 150 199 187 175 192 215 209 190 169 181 204 113 118 107 119 141 141 152 177 158 155 215 215 186 195 231 230 145 170 184 201 217 216 212 211 212 211 208 206 204 204 214
359 3 4 356 355 354 346 339 333 324 315 313 310 305 305 299 242 200 59 51 355 323 323 324 324 339 19 132 67 35 62 62 73 123 149 163 155 99 108 134 132 125 100 10 224 203 34 153 169 191 207 216 207 190 176 179 161 120 126 110 103 115 113 105 116 137 183 234 209 180 195 228 259 164 178 188 204 218 209 204 207 209 209 207 206 204 203 210
360 5 2 355 359 349 341 339 332 327 325 321 316 310 300 275 174 79 60 31 298 324 331 327 331 352 61 141 103 36 44 44 67 126 143 145 139 103 103 133 123 135 139 165 207 283 311 191 163 213 211 194 168 173 151 137 134 136 143 133 117 117 120 103 100 154 217 215 67 172 189 203 241 204 186 204 214 214 204 203 204 202 201 202 204 204 203 207
4 8 4 360 359 344 336 335 334 335 333 328 327 316 219 138 37 52 50 318 304 341 349 7 345 351 60 89 93 44 54 57 44 93 124 152 161 124 85 156 139 170 191 199 191 227 247 219 187 223 207 189 182 185 141 118 175 209 192 172 162 149 148 161 171 185 226 224 37 147 180 198 245 237 159 215 225 224 211 210 208 201 197 197 200 204 204 206
4 10 11 5 356 341 337 337 339 342 338 334 334 291 150 68 45 22 291 306 9 350 331 22 4 360 92 110 89 11 27 61 19 40 72 44 124 120 79 55 121 197 159 185 207 220 218 202 178 196 198 191 194 204 187 155 175 193 193 188 185 170 161 171 173 193 240 230 87 126 165 222 252 177 74 255 251 247 231 221 215 206 200 195 196 203 207 208
7 13 11 6 354 341 341 342 343 345 342 342 340 146 71 58 46 302 291 302 316 316 357 13 356 48 65 76 360 324 56 54 24 39 82 91 105 118 100 77 92 242 88 178 213 218 225 213 187 189 178 176 189 215 214 153 162 187 191 197 195 182 172 168 188 204 212 156 120 137 170 240 236 121 5 314 287 261 238 224 214 207 203 194 190 198 203 206
8 8 5 4 354 345 348 346 348 350 350 1 56 73 57 64 289 283 308 310 291 308 355 19 108 93 74 29 5 360 42 44 32 40 57 79 91 86 84 37 24 81 150 200 183 167 261 271 199 190 174 173 184 200 182 148 167 175 173 202 207 187 173 140 191 206 134 122 138 175 215 281 237 155 353 333 318 262 218 209 201 200 198 188 181 187 195 202
4 2 5 6 360 356 352 351 355 356 360 41 81 48 50 57 292 234 309 321 316 322 317 360 50 60 70 19 31 38 26 31 46 53 53 63 66 51 345 291 348 193 205 215 192 154 259 253 141 67 207 197 196 182 171 187 187 137 176 198 180 170 172 141 146 96 123 205 168 191 231 230 173 213 34 20 20 59 168 189 187 189 189 183 181 183 188 198
346 359 16 19 12 2 355 357 0 2 22 73 81 49 34 296 256 215 300 316 294 319 319 119 23 28 62 19 27 18 12 49 95 57 72 52 23 35 335 300 262 269 278 265 232 189 275 269 221 197 201 206 225 186 177 198 166 145 193 172 115 36 277 131 194 151 193 224 172 194 236 233 188 215 67 46 38 53 119 174 177 181 183 183 185 184 188 198
7 22 32 24 14 5 360 4 7 18 53 75 71 77 196 328 311 263 306 316 277 344 55 71 19 348 33 125 70 359 327 181 56 58 96 46 27 49 332 320 211 290 314 261 224 142 249 269 263 180 205 108 128 178 177 179 183 273 188 155 144 203 194 167 210 188 190 215 186 196 242 251 221 215 61 50 42 56 115 161 171 177 182 186 186 184 187 195
43 39 29 19 14 12 6 8 24 51 69 66 49 79 319 302 323 339 348 353 322 11 42 43 36 61 61 117 117 13 349 70 77 71 84 29 53 130 330 323 257 325 353 209 203 114 208 277 143 135 233 339 162 192 197 179 170 4 151 178 207 252 189 178 192 202 191 198 201 193 215 235 218 170 63 55 37 65 155 159 166 175 183 187 187 186 181 180
38 23 20 13 10 11 8 18 46 59 63 63 32 36 330 305 329 3 20 31 20 24 40 15 9 57 70 71 129 64 38 54 70 68 61 34 94 155 320 316 300 336 347 227 204 126 158 265 274 129 180 223 184 192 219 189 171 182 191 194 202 188 186 184 161 202 219 191 195 205 213 206 143 129 173 160 122 155 154 155 163 168 174 176 178 178 165 159
35 34 13 7 7 11 19 35 52 50 58 110 48 278 329 345 337 360 19 37 56 50 58 86 46 44 65 50 48 49 51 56 52 61 93 66 12 147 36 359 316 314 315 220 117 8 186 192 269 301 292 218 187 65 286 260 214 199 200 199 197 184 172 190 193 169 243 217 191 223 226 155 104 168 196 168 158 153 139 150 157 153 157 158 155 161 162 166
41 54 9 5 9 15 28 47 49 26 84 65 20 310 339 353 347 356 7 20 38 47 63 78 57 38 41 21 22 29 58 65 31 24 93 60 44 206 337 342 319 257 271 214 87 337 260 140 256 278 289 279 305 27 72 274 298 145 186 201 195 187 188 207 207 166 165 210 64 254 244 120 110 180 195 180 142 133 142 146 143 144 153 156 150 154 166 175
48 60 10 13 24 26 34 60 16 17 44 2 4 10 7 11 12 4 5 11 15 19 42 49 24 44 46 13 12 44 37 48 30 23 77 74 54 325 337 351 349 209 227 151 153 131 194 118 327 280 287 301 261 95 102 140 152 103 57 37 243 236 236 227 216 165 180 187 152 202 225 136 150 195 205 171 123 122 147 149 145 148 150 154 154 152 158 169
72 64 39 31 32 32 43 77 14 24 19 358 25 28 22 37 31 21 17 15 10 354 16 38 33 38 33 4 60 54 11 42 60 23 33 96 38 354 355 13 30 85 5 10 251 227 193 339 347 260 180 134 143 140 124 105 31 32 31 6 331 293 138 121 102 155 198 184 159 216 222 125 138 187 202 164 131 135 154 153 154 150 142 149 155 154 158 166
92 63 51 43 42 49 72 110 83 63 42 16 32 13 5 41 39 33 37 26 23 14 8 27 4 10 26 35 71 55 23 38 72 21 6 39 360 343 2 20 31 28 8 351 294 252 21 12 299 243 188 143 142 136 95 354 335 333 351 354 347 340 202 165 143 188 212 171 143 227 221 122 147 187 188 164 143 145 145 141 146 139 136 148 151 154 161 171
85 62 41 39 50 58 72 75 55 74 103 40 58 13 3 27 24 23 39 41 32 31 38 28 347 346 37 35 59 53 28 28 65 80 37 354 338 330 355 16 25 21 16 10 357 193 124 50 36 67 84 102 103 23 314 299 326 350 2 4 1 348 320 301 188 198 191 158 173 222 144 148 175 193 176 159 154 149 138 132 139 139 140 145 147 151 158 168
81 65 3 11 49 54 64 54 35 39 136 69 78 355 1 2 336 11 37 44 29 29 47 41 17 14 32 20 60 56 18 18 47 53 22 346 303 293 336 8 20 18 22 26 15 62 135 78 55 71 89 108 109 55 347 337 48 26 16 16 13 5 339 268 229 194 145 163 195 177 157 163 178 185 170 158 159 151 138 139 144 144 141 139 142 151 156 161
81 98 74 72 70 48 58 33 16 32 92 76 101 342 8 28 32 24 24 22 24 23 30 40 21 18 4 334 94 55 4 26 44 21 350 357 327 312 347 7 16 16 22 31 25 36 134 94 31 167 124 118 102 70 47 59 92 42 30 29 21 17 13 333 315 355 113 225 211 159 170 175 169 172 165 154 156 147 137 141 144 143 139 133 135 143 150 157
86 107 94 80 93 118 32 355 348 51 59 45 58 40 20 44 53 48 346 354 28 19 22 63 19 8 15 30 108 75 13 41 58 30 357 360 347 353 15 10 4 10 13 29 36 28 197 97 2 262 165 109 64 40 43 60 106 41 31 30 25 27 37 33 24 25 20 354 108 150 161 157 153 163 154 144 150 141 132 137 142 145 143 135 135 136 133 133
88 100 107 109 97 62 26 17 68 117 43 26 60 46 27 42 48 71 7 15 40 9 26 84 60 4 26 44 67 78 34 352 65 28 325 334 10 7 15 353 328 358 10 26 22 1 349 112 349 310 176 94 38 22 22 38 114 49 27 21 17 23 34 36 35 24 23 47 117 139 143 135 145 150 136 133 141 135 134 143 148 151 148 139 134 131 125 123
83 82 91 131 100 10 14 45 58 105 50 29 88 126 149 96 44 80 57 39 49 32 20 99 104 4 15 39 52 51 6 257 255 312 296 264 341 4 13 13 275 327 10 22 354 350 2 30 12 341 190 127 35 22 13 10 130 47 26 16 9 11 15 17 19 358 347 135 139 140 151 155 149 143 135 136 141 138 141 150 153 154 149 141 138 132 125 121
50 54 60 120 102 6 23 74 39 85 111 50 134 159 121 128 192 194 105 55 44 45 45 164 172 14 25 42 31 359 342 329 342 33 71 110 94 74 70 71 59 30 11 1 6 11 354 360 23 314 210 153 15 5 8 359 323 359 21 9 1 11 5 343 21 21 10 152 154 161 169 151 147 144 141 144 147 147 153 157 156 155 149 143 138 132 125 118